Regional Weather Roundup
Issued by NWS Cleveland, OH

Home | Current Version | Previous Version | Text Only | Print | Product List | Glossary Off
Versions: 1 2 3 4 5 6 7 8 9 10 11 12 13 14 15 16 17 18 19 20 21 22 23 24 25 26 27 28 29 30 31 32 33 34 35 36 37 38 39 40 41 42 43 44 45 46 47 48 49 50

000
ASUS41 KCLE 221012
RWRCLE
OHIO REGIONAL WEATHER ROUNDUP
NATIONAL WEATHER SERVICE WILMINGTON, OH
600 AM EDT SUN OCT 22 2017

NOTE: "FAIR" INDICATES FEW OR NO CLOUDS BELOW 12,000 FEET WITH NO
SIGNIFICANT WEATHER AND/OR OBSTRUCTIONS TO VISIBILITY.

OHZ001>008-015>018-024>027-034-035-043-044-221100-
   NORTHWEST OHIO

CITY           SKY/WX    TMP DP  RH WIND       PRES   REMARKS
DEFIANCE       FAIR      56  46  69 S6        30.14S
FINDLAY        FAIR      53  47  79 SE12      30.17S
TOLEDO EXPRESS FAIR      52  49  89 CALM      30.15F
TOLEDO EXEC    FAIR      54  48  80 SE6       30.17S
LIMA           FAIR      53  47  79 S8        30.16F
$$

OHZ009>014-019>023-028>033-038-089-221100-
   NORTHEAST OHIO

CITY           SKY/WX    TMP DP  RH WIND       PRES   REMARKS
CLE-HOPKINS    FAIR      55  49  80 SE9       30.25S
CLE-LAKEFRONT  FAIR      58  49  72 SE14      30.22S
CUY CO. ARPT   NOT AVBL
LORAIN-ELYRIA  FAIR      50  44  80 SE5       30.22F
ASHTABULA      FAIR      53  50  89 SE6       30.28R
AKRON-CANTON   FAIR      53  48  83 SE5       30.26R
WOOSTER        FAIR      41  40  96 CALM      30.25S FOG
MANSFIELD      FAIR      54  49  83 S8        30.23S
YOUNGSTOWN     FAIR      51  49  92 SE9       30.28R
$$

OHZ042-051>053-060>062-070>072-077>081-221100-
  SOUTHWEST OHIO

CITY           SKY/WX    TMP DP  RH WIND       PRES   REMARKS
CINC-COVINGTON FAIR      57  50  77 S7        30.17S
CINC-LUNKEN    FAIR      47  47 100 E3        30.19F FOG
HAMILTON       FAIR      51  49  92 E3        30.18F
DAYTON         FAIR      52  49  89 SE7       30.18F
WRIGHT-PAT AFB FAIR      53  50  89 CALM      30.18S
DAYTON GENERAL FAIR      56  48  74 S9        30.17F
WILMINGTON     FAIR      57  50  77 S8        30.20S
$$

OHZ036-037-039>041-045>050-054>059-063>069-073>076-082>088-221100-
  CENTRAL AND SOUTHEAST OHIO

CITY           SKY/WX    TMP DP  RH WIND       PRES   REMARKS
COLUMBUS       FAIR      57  51  80 SE3       30.22R
OSU AIRPORT    FAIR      56  52  86 SE7       30.21S
BOLTON FIELD   FAIR      50  49  95 CALM      30.22S
RICKENBACK AFB FAIR      50  50 100 CALM      30.22S
NEWARK         FAIR      47  45  93 CALM      30.23S FOG
MARION         FAIR      53  47  79 SE9       30.21S
LANCASTER      FAIR      50  49  96 S5        30.23R
ZANESVILLE     FAIR      52  49  89 SE3       30.25R
NEW PHILLY     FAIR      50  49  96 CALM      30.27R
$$



USA.gov is the U.S. government's official web portal to all federal, state and local government web resources and services.